Tracking 17155 objects as of 30-July-2015
HD Live streaming from Space Station

ZY 3

Track ZY 3 now!
10-day predictions
ZY 3 is classified as:


NORAD ID: 38046
Int'l Code: 2012-001A
Perigee: 508.3 km
Apogee: 509.5 km
Inclination: 97.4 °
Period: 94.7 minutes
Semi major axis: 6879 km
RCS: 5.391 m2 (large)
Launch date: January 9, 2012
Source: People's Republic of China (PRC)
Your satellite tracking list
Your tracking list is empty





NASA's NSSDC Master Catalog

Two Line Element Set (TLE):
1 38046U 12001A   15211.32823066  .00002297  00000-0  10560-3 0  9990
2 38046 097.3642 285.0615 0000829 152.2468 273.0952 15.21347171197375

Source of the keplerian elements: AFSPC

N2YO: 295